Flag for Slovakia Weather past 2 weeks in Prešov, Slovakia

Now
70 °F

Sunny.


Feels Like: 70 °F
Forecast: 43 / 72 °F
Wind: 2 mph from North

Location: Kosice - Barca

Current Time: Sep 17, 2014 at 6:09:14 PM

Latest Report: Sep 17, 2014 at 5:30 PM


Visibility: 10 mi

Pressure: 30.09 "Hg

Humidity: 43%

Dew point: 46 °F

Location of PrešovLocation

Historic Weather in Prešov — Graph

°F

Prešov temperature yesterday

Maximum temperature yesterday: 77 °F (at 1:30 PM)
Minimum temperature yesterday: 59 °F (at 4:30 AM)
Average temperature yesterday: 66 °F

Past Weeks' High & Low Weather Summary

 TemperatureHumidityPressure
High81 °F (Sep 9, 4:00 PM)100% (Sep 7, 2:30 AM)30.15 "Hg (Sep 7, 2:30 AM)
Low54 °F (Sep 17, 5:30 AM)37% (Sep 5, 3:30 PM)29.89 "Hg (Sep 11, 7:00 PM)
Average66 °F76%30.01 "Hg
* Reported Sep 2 5:00 PM — Sep 17 5:00 PM, Prešov, Weather by CustomWeather, © 2014

Note: Actual official high and low records may vary slightly from our data, if they occured in-between our weather recording intervals... More about our weather records

Advertising

Prešov weather history for previous 24 hours

 ConditionsComfort  
Time TempWeatherWind HumidityBarometerVisibility
5:00 PM
Sep 17
72 °FPassing clouds.3 mph44%30.09 "HgN/A
4:30 PM72 °FPassing clouds.6 mph47%30.09 "HgN/A
4:00 PM72 °FPassing clouds.3 mph47%30.09 "HgN/A
3:30 PM72 °FPassing clouds.5 mph47%30.09 "HgN/A
3:00 PM72 °FSunny.2 mph44%30.12 "Hg10 mi
2:30 PM72 °FPassing clouds.6 mph44%30.12 "HgN/A
2:00 PM70 °FPassing clouds.6 mph46%30.12 "HgN/A
1:30 PM70 °FPassing clouds.6 mph43%30.12 "HgN/A
1:00 PM68 °FPassing clouds.7 mph53%30.12 "HgN/A
12:30 PM68 °FPassing clouds.6 mph46%30.15 "HgN/A
12:00 PM66 °FPassing clouds.6 mph49%30.15 "HgN/A
11:30 AM66 °FPassing clouds.7 mph52%30.15 "HgN/A
11:00 AM66 °FPassing clouds.7 mph52%30.15 "HgN/A
10:30 AM64 °FPassing clouds.7 mph52%30.15 "HgN/A
10:00 AM64 °FPassing clouds.5 mph52%30.15 "HgN/A
9:30 AM63 °FPassing clouds.6 mph56%30.15 "HgN/A
9:00 AM61 °FSunny.6 mph68%30.15 "Hg10 mi
8:30 AM61 °FSunny.7 mph68%30.12 "Hg10 mi
8:00 AM59 °FSunny.7 mph68%30.12 "Hg10 mi
7:30 AM55 °FSunny.7 mph82%30.12 "Hg10 mi
7:00 AM54 °FClear.7 mph88%30.12 "Hg10 mi
6:30 AM54 °FClear.8 mph88%30.12 "Hg10 mi
6:00 AM54 °FClear.7 mph88%30.12 "Hg10 mi
5:30 AM54 °FClear.8 mph88%30.12 "Hg10 mi
5:00 AM55 °FClear.7 mph82%30.12 "Hg10 mi
4:30 AM55 °FClear.5 mph88%30.12 "Hg10 mi
4:00 AM55 °FClear.7 mph82%30.12 "Hg10 mi
3:30 AM55 °FClear.5 mph88%30.12 "Hg10 mi
3:00 AM55 °FClear.5 mph82%30.12 "Hg10 mi
2:30 AM55 °FClear.3 mph88%30.12 "Hg10 mi
2:00 AM57 °FPassing clouds.6 mph82%30.12 "HgN/A
1:30 AM59 °FClear.10 mph77%30.12 "Hg10 mi
1:00 AM59 °FClear.7 mph77%30.12 "Hg10 mi
12:30 AM59 °FClear.5 mph77%30.12 "Hg10 mi
12:00 AM61 °FPassing clouds.3 mph72%30.12 "HgN/A
11:30 PM
Sep 16
63 °FClear.10 mph73%30.09 "Hg10 mi
11:00 PM63 °FClear.9 mph73%30.09 "Hg10 mi
10:30 PM63 °FClear.8 mph73%30.09 "Hg10 mi
10:00 PM63 °FClear.8 mph73%30.09 "Hg10 mi
9:30 PM63 °FClear.8 mph73%30.09 "Hg10 mi
9:00 PM63 °FClear.9 mph73%30.09 "Hg10 mi
8:30 PM63 °FClear.6 mph73%30.09 "Hg10 mi
8:00 PM63 °FClear.6 mph73%30.09 "Hg10 mi
7:30 PM64 °FSunny.7 mph68%30.09 "Hg10 mi
7:00 PM66 °FSunny.6 mph60%30.09 "Hg10 mi
6:30 PM68 °FSunny.6 mph53%30.09 "Hg10 mi
6:00 PM70 °FSunny.6 mph50%30.07 "Hg10 mi
Weather by CustomWeather, © 2014

See weather overviewHow to use our weather pages